Theta_e
296 289 284 285 286 288 290 290 290 291 291 290 290 290 287 288 289 292 294 297 295 292 291 291 292 292 294 293 293 295 296 298 300 310 313 314 314 316 317 317 317 317 319 321 322 325 328 327 327 329 331 332 332 331 331 330 329 329 329 329 329 330 330 330 329 329 329 330 330 332 332 332 332 332 331 332 332 333 333 336 334 334 334 334 333 334
297 288 287 288 290 290 291 292 292 291 292 290 289 289 287 289 288 293 294 297 297 293 289 290 291 291 292 294 295 296 296 296 296 301 308 312 315 316 317 316 316 318 317 320 320 320 324 326 327 329 331 332 329 329 329 329 329 328 329 328 329 329 330 330 330 330 330 331 332 332 331 331 331 330 330 330 331 332 333 334 333 334 333 333 333 334
289 287 291 292 293 292 293 292 292 291 291 291 288 287 287 287 290 294 295 295 296 294 290 291 290 291 294 295 296 297 297 296 297 298 303 312 314 315 316 316 316 315 316 316 318 319 324 327 329 330 329 329 330 328 327 329 329 328 328 329 329 329 329 331 331 331 330 331 331 331 330 331 330 331 332 332 332 333 332 332 333 333 333 333 332 333
286 289 293 295 293 292 291 291 291 292 293 288 288 287 285 289 289 285 291 294 295 295 292 292 290 290 293 293 294 295 297 298 297 297 297 311 314 315 316 316 316 315 315 315 316 319 324 323 324 326 327 327 327 326 326 327 328 328 328 328 329 328 330 331 331 332 331 332 331 330 331 332 331 330 333 331 333 333 332 331 332 332 332 332 332 333
290 293 296 295 293 292 291 291 291 288 286 290 290 287 286 290 290 289 289 292 293 293 295 291 285 284 288 293 294 296 296 298 297 297 298 307 315 317 317 317 316 315 315 315 317 320 322 322 324 325 325 325 324 325 325 327 328 329 328 328 328 329 330 331 332 331 331 332 329 330 330 331 330 331 330 329 329 331 331 331 330 330 331 332 332 332
292 297 297 293 293 292 291 289 290 290 285 288 292 292 292 292 292 291 293 290 285 284 290 292 281 281 285 289 291 293 294 296 296 298 300 297 311 313 313 314 315 316 316 318 319 320 321 323 324 324 324 324 324 324 326 328 329 329 329 329 329 329 331 331 331 331 332 330 330 329 329 328 328 328 328 327 327 329 329 330 330 330 331 332 332 332
293 297 297 294 292 292 291 290 291 292 285 286 288 294 293 293 293 292 291 287 281 282 289 294 283 277 283 287 290 292 292 298 305 305 307 308 300 310 313 313 313 314 314 319 320 321 321 322 323 323 323 323 323 324 326 327 328 329 329 329 329 329 330 331 331 332 332 330 330 330 330 330 328 328 328 330 330 330 330 331 330 330 330 332 331 331
296 293 294 294 293 291 289 287 291 292 288 285 292 293 294 293 291 291 291 288 282 289 290 290 286 281 280 284 289 292 294 301 303 306 308 311 313 313 312 313 312 313 315 319 319 321 322 323 322 322 323 324 324 325 325 325 328 328 328 328 328 329 329 330 331 331 332 330 329 329 330 330 329 329 328 329 330 331 330 330 330 329 330 332 332 331
294 292 292 291 291 290 288 291 292 293 289 287 293 295 292 293 291 291 289 286 286 285 281 284 290 282 279 283 290 291 291 300 301 305 309 312 314 315 315 316 318 319 317 319 319 320 321 321 321 322 322 323 324 325 324 324 326 328 328 328 327 328 329 330 330 331 331 331 330 329 329 328 329 329 329 330 331 330 330 329 328 328 329 330 330 331
294 295 295 294 291 288 293 294 294 295 290 293 294 295 294 293 292 291 287 286 284 281 278 282 288 281 277 282 290 291 294 298 300 304 309 312 314 314 315 316 319 321 321 321 321 321 321 320 321 321 322 323 324 324 322 323 325 327 327 326 327 327 329 330 330 330 330 330 330 329 328 328 328 329 328 329 330 329 329 328 327 327 328 328 328 329
295 300 300 295 292 293 294 293 295 295 293 295 294 293 291 288 288 288 285 284 282 277 277 284 289 284 278 286 292 293 295 295 300 305 309 312 314 315 315 316 317 319 320 321 321 321 321 321 320 320 321 321 321 321 323 322 324 326 326 324 326 328 329 330 329 328 326 327 328 327 326 326 325 326 328 329 329 328 326 326 325 325 326 326 327 327
294 294 294 294 299 297 296 294 296 297 295 293 291 288 288 284 283 283 281 281 278 272 278 284 287 286 279 280 294 300 305 305 304 305 308 311 313 314 313 314 316 318 319 320 321 320 321 320 320 319 319 320 321 322 323 324 326 326 327 326 325 327 328 328 329 328 328 328 327 324 324 325 327 329 329 329 329 329 327 326 324 323 323 324 325 326
290 290 290 294 302 297 294 291 289 294 293 290 288 286 282 276 276 276 276 278 275 275 281 285 287 284 279 288 296 302 304 306 307 307 307 309 311 314 315 315 315 316 317 318 319 319 319 319 318 319 319 320 321 321 323 325 326 327 327 326 324 325 327 328 328 327 327 326 324 324 326 327 328 329 330 329 328 328 327 325 323 323 323 323 324 325
286 290 292 293 296 298 294 287 287 288 289 287 286 281 280 275 274 270 273 273 276 281 285 286 288 279 286 294 300 302 305 308 308 309 310 310 310 312 314 315 315 315 316 317 318 318 319 319 319 319 319 319 319 321 322 325 326 326 326 325 324 325 327 328 328 328 327 327 327 329 330 328 327 326 329 329 328 326 325 324 324 324 324 324 325 326
279 280 286 291 289 295 294 291 291 286 287 289 288 287 282 277 277 272 275 272 274 278 279 288 284 279 285 289 303 306 308 308 309 308 309 310 310 311 312 313 314 315 314 315 316 317 318 318 318 316 316 316 317 319 321 323 325 326 326 325 325 325 326 327 327 327 327 326 327 329 330 329 328 327 327 327 327 326 325 324 324 324 326 326 326 326
285 281 287 293 293 294 294 295 294 291 290 290 290 289 284 282 280 277 275 277 278 279 279 283 280 288 291 300 303 306 307 307 308 308 310 310 311 311 311 311 312 313 315 315 315 315 316 316 317 317 315 316 317 318 320 323 324 325 325 325 324 324 326 327 327 327 327 325 327 329 330 331 330 329 328 327 327 327 325 324 324 324 325 326 326 326
286 282 291 294 295 294 293 296 296 294 283 287 289 283 289 291 289 280 279 282 276 277 276 278 286 291 295 297 303 304 304 304 306 308 309 308 309 311 311 311 311 312 313 314 314 315 316 316 315 316 316 318 321 321 321 322 323 323 324 323 320 322 323 323 324 325 326 326 327 329 331 331 330 330 328 327 327 327 326 325 325 325 325 325 326 327
281 281 290 292 290 294 295 297 296 296 293 288 283 287 292 294 291 284 276 277 275 273 272 281 281 284 283 282 301 302 301 302 304 306 307 307 307 306 307 308 308 308 309 310 310 310 311 313 315 316 317 319 320 322 322 321 322 323 323 324 323 322 322 323 323 324 325 326 327 329 330 330 331 330 328 326 326 326 326 325 325 325 324 325 327 328
289 281 284 290 292 295 299 295 292 296 296 291 289 292 288 281 282 282 279 273 272 273 272 279 284 286 290 289 299 299 300 301 303 305 305 305 305 305 305 305 306 306 306 306 306 307 308 309 310 312 315 319 319 321 322 321 320 321 322 324 324 323 324 324 325 325 327 327 326 326 326 326 328 328 327 326 326 326 326 325 325 325 325 326 327 329
288 280 283 290 292 295 294 292 284 288 293 295 295 292 291 287 281 279 280 278 278 272 273 276 281 278 293 296 300 300 301 302 304 304 303 304 305 304 304 303 303 303 303 304 304 305 306 307 308 309 310 312 315 318 320 321 321 322 322 322 323 324 325 326 325 325 326 327 328 328 328 329 329 327 326 325 325 324 323 325 325 325 325 327 328 328
285 285 279 285 292 293 287 291 286 287 286 288 288 285 289 288 290 287 288 282 278 272 271 273 276 284 295 302 301 302 302 304 304 303 303 303 303 303 302 302 302 302 302 303 303 304 304 305 306 308 309 310 311 313 315 317 319 322 321 320 321 321 323 325 326 325 325 326 327 327 327 325 324 324 323 323 324 323 324 325 325 325 326 328 328 327
284 284 282 284 287 284 290 295 293 292 291 287 285 286 288 285 284 281 278 285 284 280 276 273 274 289 296 302 301 301 303 304 305 304 303 303 302 301 301 300 300 300 301 302 303 303 303 304 305 306 307 308 308 309 310 313 315 316 320 320 320 320 320 322 324 324 324 324 327 326 324 323 323 324 324 323 323 324 325 325 325 326 326 327 325 326
290 286 283 282 282 286 295 299 301 303 302 299 297 293 294 285 282 277 278 278 282 285 285 284 285 285 300 302 301 301 301 300 301 303 303 301 300 299 299 299 300 300 300 300 300 301 302 303 303 303 304 305 306 306 307 309 310 312 314 316 319 320 319 321 322 324 324 324 324 324 323 323 322 323 323 322 323 324 325 324 326 327 326 326 325 326
310 281 282 283 286 291 295 300 300 300 300 297 297 297 295 291 292 283 280 281 281 281 279 280 283 287 299 302 301 300 300 299 300 299 300 299 298 298 298 298 298 298 298 299 299 299 300 300 301 301 301 302 303 304 305 307 308 309 310 312 315 317 320 320 320 321 322 322 322 322 322 321 321 323 323 323 323 324 325 325 326 326 325 325 325 326
285 286 283 278 278 280 285 291 292 296 296 291 290 293 296 295 295 291 289 285 281 284 281 280 280 286 296 301 299 299 297 296 296 297 298 296 296 296 296 296 297 297 297 297 297 297 298 298 299 299 300 301 302 304 304 305 306 307 308 310 311 313 317 321 321 321 322 321 320 320 321 322 322 322 322 322 323 324 324 324 324 324 325 325 324 324
289 288 282 278 275 274 274 278 280 283 288 289 294 294 295 295 292 291 285 281 280 283 286 284 284 291 296 297 296 295 295 294 295 296 297 296 295 294 295 295 295 295 295 295 295 296 296 297 298 299 299 300 301 303 304 304 305 306 307 308 310 311 313 317 322 322 322 322 321 319 320 322 322 322 321 321 322 323 323 324 324 324 324 325 323 323
290 290 285 279 276 278 282 287 292 290 290 287 290 291 291 293 293 288 283 279 279 283 286 290 290 289 291 293 293 293 293 292 292 293 293 294 294 294 295 295 294 294 294 294 295 295 296 296 296 298 298 299 300 302 303 304 304 305 306 306 308 309 311 315 321 322 321 321 321 320 320 321 321 321 320 320 322 323 323 323 324 324 323 322 322 321
287 286 290 290 290 290 292 292 294 294 290 290 289 289 291 291 292 290 282 283 285 286 284 291 292 288 289 291 291 291 292 292 292 292 292 293 293 293 294 294 295 294 294 294 294 294 294 295 296 296 297 298 299 301 302 303 304 304 305 305 306 308 310 313 317 321 321 320 321 321 321 320 320 319 321 322 323 323 323 323 322 323 322 320 319 317
286 283 292 291 291 293 293 292 292 291 290 290 289 289 289 290 291 289 290 291 287 280 284 290 290 287 287 289 291 291 292 291 291 291 292 293 294 293 293 292 292 293 293 293 293 294 294 294 295 295 296 297 298 299 300 301 302 303 304 305 306 307 309 312 315 320 320 320 320 321 321 320 320 320 321 322 322 321 321 322 322 321 320 317 317 317
291 286 292 293 291 291 291 291 291 289 288 288 289 290 290 290 289 290 290 291 290 288 290 288 287 286 288 289 290 291 293 292 292 293 293 292 292 292 292 291 291 292 292 292 293 293 294 294 294 295 296 296 296 297 299 300 301 302 303 303 305 306 308 310 315 319 320 320 320 319 320 320 320 320 320 320 320 319 319 320 319 318 318 317 316 313
293 287 294 291 287 288 290 290 289 288 287 286 288 289 289 289 289 290 290 291 291 288 288 287 285 284 289 291 291 292 293 294 293 291 291 292 292 292 291 290 291 291 291 292 292 293 293 294 294 294 295 295 296 296 298 299 300 301 302 303 304 305 307 309 312 316 319 319 319 320 320 319 319 319 318 318 319 318 318 319 319 318 315 314 312 310
292 288 294 291 285 285 288 288 287 287 287 286 286 287 287 286 285 286 286 289 289 286 287 287 284 283 288 291 291 291 291 290 289 290 290 290 291 291 290 290 290 290 291 291 292 293 293 293 293 293 294 295 296 296 297 298 299 300 300 302 303 304 306 307 308 310 316 319 319 319 319 319 318 318 318 318 318 319 319 318 316 313 311 310 308 306
288 285 284 285 285 284 288 288 287 286 285 282 283 286 289 288 288 289 289 290 289 290 286 283 283 288 289 291 288 288 289 289 288 289 289 290 290 290 290 290 290 290 291 291 291 292 292 293 293 293 294 295 295 296 297 298 299 299 300 301 302 304 304 305 305 306 308 311 315 318 319 319 318 317 317 317 318 318 317 316 313 310 308 306 305 304
290 287 284 286 284 285 288 289 287 282 276 277 288 292 292 287 287 285 285 287 289 289 286 288 287 289 289 289 287 286 287 287 288 290 291 290 289 289 290 290 290 290 291 291 291 292 292 293 293 294 294 295 296 297 297 298 299 299 300 301 302 302 303 303 304 304 305 306 308 311 316 318 317 317 317 317 317 316 314 312 310 309 307 305 303 301
286 284 284 284 284 284 286 285 281 277 277 288 292 292 292 290 289 287 288 289 290 290 289 288 288 288 289 289 288 288 289 290 291 291 291 292 291 290 289 290 290 290 290 290 291 291 292 292 293 293 294 294 296 296 297 297 298 299 299 300 300 301 301 302 303 303 304 304 305 307 310 313 314 314 315 315 313 312 311 310 308 307 306 304 303 301
283 284 283 282 283 283 283 281 276 277 286 290 291 293 294 292 290 289 286 288 290 290 290 287 288 289 289 288 289 290 290 290 291 291 291 292 292 291 290 290 291 291 290 291 291 291 291 292 292 293 294 296 295 296 296 296 297 297 298 299 299 300 300 301 301 302 303 303 304 304 305 307 309 310 311 311 311 310 309 308 307 306 305 303 302 300
291 286 284 282 284 281 281 280 280 285 285 286 286 288 290 286 288 285 281 284 290 292 290 288 289 289 289 289 290 290 291 290 287 288 292 292 292 293 292 292 292 292 292 292 292 292 293 293 293 294 295 294 295 295 295 296 297 297 297 297 298 299 300 300 300 301 302 303 304 304 304 304 305 306 306 307 308 307 307 306 306 306 305 302 301 299
291 286 284 283 280 282 281 278 280 279 277 281 288 292 295 295 293 291 287 283 291 292 293 290 289 289 289 289 289 289 291 287 283 284 290 292 293 292 293 293 293 293 293 293 293 293 293 294 294 295 294 294 294 294 295 296 297 296 296 296 297 297 298 298 299 300 301 302 303 304 304 304 304 303 304 304 304 304 304 304 305 304 304 302 300 299
291 289 286 284 282 282 281 279 279 277 278 285 287 290 294 296 295 293 286 280 288 292 293 292 290 291 290 288 289 290 288 282 281 284 290 292 293 294 292 292 292 293 293 293 293 292 293 293 294 294 294 294 293 294 295 294 295 296 296 296 296 297 297 297 298 299 300 301 303 304 304 304 304 304 303 303 303 304 304 304 303 303 304 303 301 299
287 281 283 283 279 279 280 279 276 280 279 285 289 291 294 297 296 290 279 278 287 291 292 292 290 290 290 291 290 289 287 281 282 285 291 293 294 294 293 292 292 292 292 293 294 294 294 294 293 293 293 293 293 294 294 293 293 294 295 296 296 296 296 297 298 299 300 301 302 302 303 304 304 304 304 303 303 304 304 304 303 303 303 302 301 299
277 280 281 279 276 279 279 278 281 281 286 290 290 293 294 295 293 282 278 282 289 290 290 290 289 289 290 289 289 285 287 289 289 291 293 293 293 292 293 293 293 293 292 293 293 295 293 293 293 292 292 292 293 293 294 293 292 292 293 294 295 295 296 297 298 299 299 300 300 301 301 302 303 304 304 305 304 304 304 304 304 304 302 301 300 299
277 278 281 281 280 276 274 277 279 282 287 290 292 293 293 290 281 279 285 292 291 289 290 290 289 289 290 289 289 289 290 292 293 293 293 293 292 293 293 294 294 294 294 294 294 294 293 293 293 293 293 293 292 293 293 292 292 292 292 293 293 295 297 298 298 298 298 298 298 299 300 301 301 303 303 304 305 304 304 305 305 304 303 302 300 299
280 282 280 279 277 278 277 275 276 274 284 291 291 291 292 285 283 288 290 290 291 290 290 290 290 290 290 289 290 290 290 291 292 292 292 292 292 292 292 292 291 292 293 293 293 294 294 293 293 292 293 293 293 293 293 292 292 291 292 292 293 295 296 297 298 298 297 297 297 298 298 299 300 300 301 301 302 302 302 303 304 304 304 302 301 299
285 282 280 279 281 275 274 275 276 283 287 292 291 284 287 289 291 291 290 288 290 290 290 289 290 290 291 290 289 290 291 291 291 292 292 292 291 291 291 292 292 292 293 295 295 295 295 294 294 293 293 294 294 294 294 294 293 293 292 292 294 295 296 297 297 298 298 297 297 297 297 297 298 299 299 299 300 299 299 300 301 302 303 303 302 301
287 280 283 280 284 281 279 282 287 290 291 292 292 291 291 292 293 292 291 289 288 289 291 290 289 290 291 291 291 290 290 291 291 292 291 291 291 291 290 290 290 291 293 293 294 295 295 294 293 293 293 293 294 294 295 295 294 293 293 294 295 295 295 296 296 297 297 297 298 297 296 296 296 296 297 298 298 297 297 297 299 299 300 301 302 302
290 290 291 288 285 289 290 290 291 291 291 291 293 293 292 292 293 293 291 288 289 291 291 290 291 291 292 292 290 290 290 291 291 291 292 292 290 291 292 291 291 291 292 293 293 294 294 294 293 293 293 294 294 294 294 295 295 294 294 296 296 296 295 296 296 296 296 297 297 298 297 295 294 295 295 295 296 296 296 295 296 297 298 299 299 300
290 290 288 284 286 284 279 289 288 289 290 291 291 292 293 293 291 291 291 291 291 292 292 291 289 288 289 290 289 288 288 291 291 291 292 291 291 291 292 291 291 291 291 292 293 293 294 293 293 293 293 293 294 294 294 295 295 295 296 296 297 297 296 295 295 295 296 296 296 297 297 295 294 293 293 293 293 294 294 294 294 294 295 296 296 297
284 292 287 287 286 283 282 287 288 289 290 291 291 290 290 291 292 292 292 292 292 291 290 290 290 290 290 290 289 288 289 291 291 291 291 291 291 291 291 292 291 291 292 292 293 293 293 293 293 293 293 293 293 293 294 295 295 296 296 297 297 297 296 295 295 295 295 296 296 296 296 296 291 293 293 291 291 291 291 292 292 291 290 290 292 295
288 290 283 286 283 286 288 289 289 289 289 289 290 291 291 291 291 291 292 292 291 290 290 290 290 289 288 288 287 287 287 289 289 290 290 291 291 291 290 291 292 292 292 292 292 292 292 292 293 293 293 293 294 294 294 294 295 296 296 297 297 296 296 295 294 295 295 296 296 296 295 296 295 295 294 293 291 290 290 290 290 290 291 291 290 291
287 283 287 286 282 282 282 285 288 282 282 286 288 290 291 292 292 291 291 291 291 290 289 289 288 288 288 287 287 286 286 286 288 289 289 290 291 291 290 291 292 293 293 293 293 292 292 293 293 293 293 294 294 295 294 294 295 295 296 297 297 297 295 294 294 294 294 295 295 295 295 295 296 296 294 294 293 292 291 288 289 289 290 289 289 289
286 286 286 283 283 282 287 289 289 288 288 288 289 291 292 292 291 290 290 290 290 290 290 289 287 287 287 287 287 286 285 286 286 286 286 288 289 290 291 291 291 292 293 293 293 293 293 293 294 294 293 294 295 295 295 294 294 295 296 296 297 296 295 295 293 293 294 294 294 293 294 295 295 295 294 294 293 293 292 292 291 289 289 289 289 289
Wind_Speed
3 3 4 7 7 6 4 6 8 8 6 3 1 1 4 5 5 4 8 6 5 5 9 11 8 8 10 6 4 5 2 5 3 2 6 7 6 6 6 8 8 9 11 4 4 1 8 11 8 9 10 11 10 10 12 12 13 12 10 11 8 8 10 7 8 8 8 8 6 3 5 5 4 5 4 4 4 5 5 6 6 5 5 6 6 6
4 4 7 9 9 8 8 6 5 5 4 4 3 3 7 7 7 5 6 6 2 5 4 5 8 8 7 6 4 3 2 2 2 9 4 5 9 11 12 10 12 11 1 0 1 7 11 11 11 10 10 12 13 10 11 14 17 19 21 20 16 10 5 8 9 8 7 7 8 9 8 5 5 6 6 6 5 5 5 5 5 5 5 5 6 6
3 7 11 10 8 6 5 5 5 6 5 4 4 4 3 8 3 8 5 5 5 1 5 3 6 4 5 7 6 1 1 2 3 6 9 11 9 9 10 12 9 4 5 2 2 11 10 11 11 11 11 12 13 12 11 11 11 10 10 11 15 15 11 8 10 7 8 6 3 4 4 5 4 3 5 6 6 5 6 5 5 6 5 5 5 5
3 8 13 9 5 5 6 5 5 4 2 4 2 1 5 6 1 6 5 7 8 3 3 2 4 3 6 4 4 4 3 1 3 4 4 11 13 13 13 12 10 9 6 7 5 10 10 11 12 12 12 11 9 9 6 5 8 8 9 11 12 12 11 10 9 8 6 6 4 3 4 5 4 4 4 3 4 5 5 5 5 5 6 6 6 6
11 6 5 6 6 6 7 6 4 3 6 4 5 3 4 4 2 3 5 4 4 4 4 5 4 4 2 2 2 5 8 9 8 4 1 6 12 15 13 8 7 11 11 3 16 10 10 11 11 11 11 10 11 10 9 10 10 10 15 15 13 13 15 14 14 12 9 6 4 3 3 2 3 3 2 3 3 5 5 5 5 6 6 6 6 6
10 13 1 5 7 6 6 7 7 6 6 3 5 8 5 3 3 4 2 6 7 5 2 3 1 1 6 4 6 6 5 9 9 11 12 2 5 3 3 7 6 1 13 13 13 14 13 13 11 10 11 11 10 11 12 14 14 14 14 15 13 10 13 15 17 17 13 11 10 8 9 9 6 7 8 10 11 9 8 9 6 4 6 7 6 6
9 2 6 7 8 8 8 7 6 8 7 4 5 6 4 3 1 2 4 4 1 0 3 1 3 2 5 2 3 5 6 11 10 11 9 10 4 2 1 4 4 7 8 11 14 13 14 12 11 10 11 12 14 14 14 11 10 13 13 13 12 10 9 12 15 17 15 14 12 15 15 13 13 13 11 10 9 9 7 6 8 7 6 6 7 6
3 5 8 7 7 9 6 7 5 10 7 4 3 3 1 1 2 4 1 3 2 2 3 7 2 1 1 5 4 3 12 8 12 12 14 13 14 13 7 5 4 8 11 10 11 13 13 12 13 13 13 13 14 14 11 10 10 13 14 13 11 9 7 8 11 15 17 18 16 16 15 13 12 12 11 9 8 6 6 8 8 7 6 7 7 8
4 5 6 7 6 7 7 9 6 9 6 4 5 6 3 5 3 1 3 3 3 3 3 6 3 2 1 4 4 3 8 9 11 10 11 12 12 12 13 11 11 10 9 12 12 12 11 10 9 8 8 4 7 9 11 12 12 11 11 10 8 8 8 8 9 11 12 12 16 15 12 10 8 7 6 7 7 7 6 7 7 7 7 7 6 6
2 9 10 11 8 8 9 10 8 12 5 5 4 3 1 1 0 1 1 2 2 3 2 3 0 1 2 7 10 5 10 5 4 6 7 8 10 11 11 11 12 12 11 9 10 9 7 5 5 4 5 7 7 4 2 4 5 7 7 6 8 9 8 8 8 9 8 5 7 11 12 11 8 5 2 3 6 5 5 7 7 6 7 7 6 5
8 5 4 4 6 8 9 8 7 7 6 2 3 1 1 4 1 2 5 3 3 1 2 4 1 4 0 3 5 6 3 1 2 4 5 8 10 11 11 11 11 12 10 9 9 7 6 3 3 3 6 4 3 2 0 1 3 6 6 2 4 6 6 7 5 1 1 3 4 2 1 1 1 2 4 4 5 5 4 5 5 5 5 5 6 6
4 3 3 2 8 3 5 3 5 8 4 6 2 3 1 4 5 4 3 6 1 2 6 5 0 5 1 1 5 6 6 9 6 7 10 12 12 12 11 10 11 10 9 9 9 8 7 5 4 3 4 3 3 2 1 2 4 6 6 3 5 5 5 4 1 0 0 1 2 1 3 3 3 4 3 3 5 5 6 6 6 4 3 4 4 5
5 5 3 6 4 9 3 5 3 2 4 7 7 6 5 2 2 3 3 1 1 2 3 1 1 2 3 2 4 8 9 11 10 8 8 9 11 11 12 11 9 9 8 7 7 6 5 5 5 5 4 3 2 1 1 5 5 6 7 6 7 6 5 5 2 2 1 2 3 2 3 4 4 5 4 3 3 2 4 4 5 6 6 4 4 5
6 3 4 5 4 1 7 6 2 2 1 6 4 5 5 2 1 2 1 1 2 5 6 0 2 2 3 4 7 8 7 9 9 9 8 9 10 11 11 10 11 10 10 9 8 6 5 4 4 5 3 2 1 2 2 4 6 4 3 4 6 10 9 6 5 7 7 8 6 5 5 5 5 4 4 4 4 3 2 4 6 6 7 7 7 6
1 4 5 1 2 2 4 6 9 6 6 7 6 7 7 6 4 2 2 3 5 7 4 2 1 3 5 1 4 5 7 7 7 7 4 6 7 7 10 13 13 13 11 10 8 8 9 8 6 4 2 2 1 2 3 3 3 3 2 2 4 7 8 8 8 7 10 7 3 3 4 5 5 5 4 4 4 5 5 5 6 6 6 7 6 7
6 5 6 6 4 3 7 4 6 5 4 1 3 6 6 4 7 2 6 4 2 1 1 1 1 1 7 4 3 2 5 10 6 7 7 9 6 9 11 11 9 9 8 9 11 11 11 8 7 7 4 2 1 0 2 3 4 4 4 3 3 3 3 5 7 7 5 2 0 1 3 5 6 5 5 5 4 5 6 5 6 7 6 6 6 6
1 2 5 5 2 5 5 5 2 7 3 3 4 2 8 6 8 3 1 1 5 5 3 2 3 2 1 3 9 7 9 9 7 9 12 13 11 10 11 11 12 12 11 10 9 8 8 8 8 7 7 7 5 4 3 3 3 4 4 5 6 7 9 8 6 3 1 3 2 2 3 5 7 7 6 6 6 6 6 7 6 7 7 5 6 6
4 5 5 1 4 6 4 8 6 6 8 4 3 8 1 4 4 7 5 1 2 4 4 2 7 1 1 1 4 8 8 9 10 12 12 11 11 13 12 12 12 12 11 12 12 12 13 13 10 7 5 5 5 4 4 3 3 4 3 3 6 7 8 4 4 5 3 4 6 5 4 4 6 7 7 6 6 6 7 7 6 4 6 6 6 6
4 4 5 3 7 4 0 3 3 1 3 8 8 3 5 3 2 4 4 1 2 1 2 4 2 3 2 2 3 7 9 8 9 11 13 13 12 11 11 12 11 12 12 12 12 11 12 12 12 12 11 8 7 7 5 5 4 4 3 4 4 5 5 6 6 8 8 4 3 3 3 4 4 4 6 5 6 6 7 8 7 7 7 6 5 6
3 3 4 4 2 1 3 4 3 3 2 1 2 2 1 5 3 2 6 4 6 3 3 1 4 0 2 2 5 5 5 5 7 10 11 11 10 9 9 9 10 10 10 9 10 11 11 12 11 11 12 14 14 13 11 8 6 5 4 4 4 4 4 6 6 6 5 6 3 4 6 6 5 4 6 6 6 5 3 6 7 7 6 8 7 6
1 1 1 3 2 2 1 1 7 6 5 2 1 2 2 1 3 5 1 4 5 4 4 5 1 1 2 4 4 5 5 5 7 9 8 8 9 10 10 9 10 11 11 11 12 11 11 12 12 12 12 11 11 11 11 12 11 6 6 6 6 5 5 3 6 7 7 6 6 7 6 6 6 6 6 7 8 10 9 7 7 7 8 8 8 9
1 1 6 4 3 2 4 5 1 5 6 5 5 3 4 2 3 4 5 2 3 3 3 6 2 2 4 5 5 7 7 7 8 8 9 10 11 11 10 11 11 10 9 8 7 9 11 12 12 12 13 12 12 13 14 11 10 11 8 7 7 6 5 4 3 2 2 3 5 8 8 8 9 9 8 7 7 8 9 8 8 8 7 7 6 2
2 2 3 0 2 6 12 14 13 12 15 12 8 1 1 2 4 3 2 3 4 2 5 5 8 1 1 3 6 7 8 10 11 8 10 11 11 10 10 10 10 11 11 11 11 9 8 8 10 11 13 14 14 13 12 11 10 8 9 10 8 6 5 4 4 2 3 4 4 5 6 6 5 5 7 9 9 9 6 5 8 8 10 9 11 8
5 2 2 1 4 1 1 15 19 14 6 8 8 6 5 4 1 3 3 3 6 2 3 2 4 2 2 5 6 8 9 9 9 11 10 10 9 10 12 12 13 13 13 13 12 13 13 12 11 12 13 13 13 13 13 11 11 10 8 8 9 10 8 4 2 2 1 3 5 5 3 4 5 8 8 9 8 9 9 11 8 3 6 5 10 11
1 1 3 1 1 1 2 3 7 7 8 5 2 5 5 2 4 2 3 2 5 1 4 7 5 4 2 3 6 8 10 11 11 11 10 10 8 8 10 10 9 10 11 12 12 12 13 15 16 14 14 14 14 14 13 14 14 14 16 14 13 11 11 6 1 0 0 1 2 3 4 5 6 6 7 7 7 8 6 6 7 8 8 5 5 8
6 0 1 2 5 5 3 4 2 2 3 1 2 9 10 10 6 4 2 2 3 1 4 6 4 3 5 6 9 10 9 9 10 9 9 9 8 8 9 9 9 9 10 11 11 12 13 11 12 13 14 12 13 13 13 13 14 14 14 14 13 14 14 14 5 1 4 3 2 2 5 7 6 8 8 7 5 7 8 8 8 9 8 5 7 7
2 2 3 2 5 5 3 3 1 4 3 5 2 12 9 6 6 4 4 4 2 2 5 1 13 10 6 6 8 8 9 9 10 10 10 9 9 8 9 9 8 9 10 11 11 11 11 12 13 12 13 11 12 12 11 11 12 13 13 14 14 12 12 12 10 5 3 4 2 6 8 7 9 6 4 5 6 7 7 8 9 8 5 4 6 8
4 5 3 8 7 6 5 4 3 5 9 4 7 7 11 12 8 10 5 1 2 7 4 3 10 9 5 6 7 8 8 8 8 8 8 8 9 9 8 9 10 11 11 11 12 12 11 11 11 12 12 13 12 12 11 11 10 11 11 12 12 12 11 10 11 6 5 4 5 8 9 9 5 6 6 5 6 9 8 7 6 7 7 8 7 9
4 3 1 6 9 10 9 11 13 13 10 8 10 10 11 11 16 12 6 5 1 2 8 10 10 9 4 5 7 8 8 8 8 9 8 7 7 8 10 12 12 12 12 12 12 11 12 12 11 11 11 11 12 13 13 12 12 10 11 11 11 12 10 10 9 7 4 5 7 6 6 7 4 6 5 6 6 7 4 7 7 4 5 5 9 10
5 3 5 11 12 9 7 9 11 15 9 13 11 10 9 11 11 11 11 12 11 10 11 14 13 10 5 5 7 7 6 7 7 6 6 8 8 10 11 11 11 11 11 11 11 11 11 11 11 11 11 12 12 13 12 12 12 12 11 11 12 11 11 9 9 5 3 5 4 4 5 4 4 7 3 7 8 7 5 4 5 2 7 10 12 12
5 0 4 4 5 4 5 9 12 13 14 13 11 9 6 6 10 10 9 8 11 13 12 13 13 9 4 5 6 6 6 4 6 9 9 8 8 9 9 10 10 11 10 10 11 11 11 11 11 11 12 12 11 12 10 10 11 11 11 12 11 11 12 9 7 7 4 4 2 3 5 6 6 7 6 6 8 8 6 9 8 5 7 11 13 13
6 5 1 4 6 2 2 10 11 15 15 15 12 12 10 7 8 7 6 4 3 9 10 10 7 4 4 5 6 6 7 8 9 8 7 7 9 9 9 10 10 10 10 10 10 10 11 11 12 12 12 12 12 12 10 10 10 10 11 11 11 11 11 11 10 9 8 2 1 3 6 7 8 7 7 7 7 8 8 9 6 7 9 13 15 12
1 4 5 4 8 5 6 8 9 6 6 7 7 8 7 9 8 8 10 11 6 1 4 5 4 4 6 4 7 7 8 9 10 9 7 8 9 9 9 9 9 9 10 10 10 10 10 10 10 10 11 10 10 10 11 10 9 10 10 10 11 10 11 12 12 11 8 9 8 1 3 7 8 7 6 7 7 8 9 8 3 8 11 14 13 11
1 3 3 2 5 7 9 3 1 4 4 0 2 5 0 2 7 11 7 9 11 7 4 4 7 7 6 6 8 7 8 8 8 8 7 6 6 7 8 8 9 8 8 9 9 9 9 9 8 8 9 9 9 10 9 9 8 8 8 8 9 11 11 12 12 11 12 12 10 9 3 5 9 9 7 5 9 12 9 5 6 8 9 11 12 12
3 4 2 2 5 6 4 2 5 2 2 2 3 7 10 9 13 14 13 11 9 10 11 10 8 8 7 6 8 8 8 8 8 9 8 8 7 6 7 8 8 8 8 8 9 9 9 9 9 9 9 9 10 9 9 9 9 8 9 10 11 12 12 12 11 13 13 12 12 11 9 6 7 8 7 6 7 11 11 6 7 10 10 10 11 11
2 5 1 4 3 4 3 0 3 2 5 5 3 4 6 7 5 10 10 10 7 6 8 9 9 9 9 9 7 7 9 8 8 8 8 7 8 7 6 6 6 8 8 8 8 7 8 8 8 9 9 8 8 8 8 8 9 8 9 9 11 11 11 11 12 13 13 13 12 12 10 8 7 8 7 6 9 11 10 6 9 11 9 10 10 9
7 3 5 4 3 5 3 3 6 6 3 2 1 2 2 1 1 1 5 4 7 3 6 8 9 8 7 6 7 7 7 6 7 7 7 7 6 6 6 6 6 7 6 6 6 7 6 6 7 8 7 8 8 9 8 8 8 7 9 11 11 11 12 13 14 13 12 12 11 11 10 10 9 8 8 6 8 11 9 9 10 9 8 11 9 10
1 4 3 7 2 3 7 5 4 1 3 2 2 2 4 2 1 1 4 4 4 5 4 8 9 9 8 8 7 8 4 5 6 5 5 5 6 5 5 5 4 4 5 5 5 5 6 6 6 7 8 9 9 10 9 9 8 8 10 11 11 12 13 13 13 12 11 11 11 10 11 11 10 9 9 8 9 7 8 8 7 5 6 10 11 11
9 9 6 8 5 4 4 5 3 3 1 2 2 5 7 3 2 1 1 3 2 3 3 5 7 8 9 9 8 5 1 2 2 2 2 3 4 4 5 5 5 5 5 5 5 5 6 7 6 7 8 10 11 12 11 10 9 9 11 10 10 12 13 13 12 12 11 9 9 10 11 12 11 10 9 10 8 6 9 9 6 3 6 10 10 10
9 5 6 8 4 1 4 4 3 1 2 0 3 5 6 4 0 0 0 1 2 3 4 5 5 4 3 3 1 3 4 4 5 3 1 2 2 4 4 5 5 5 5 5 5 4 4 5 8 11 11 11 10 10 10 8 7 10 10 10 10 12 12 11 9 9 9 10 9 10 11 11 11 11 11 10 9 8 8 8 7 4 8 8 9 9
4 3 5 5 3 6 7 3 3 1 1 1 4 5 4 3 1 1 3 3 2 5 5 6 6 5 4 4 3 6 6 5 6 3 1 2 4 6 6 4 4 4 5 6 6 5 6 7 7 8 8 7 8 9 8 8 8 10 9 9 11 11 10 8 8 9 9 10 11 12 12 10 11 11 11 9 8 7 7 7 6 6 8 9 9 10
3 2 1 4 5 4 2 5 2 2 0 5 4 2 1 2 4 3 3 4 7 7 6 7 9 7 8 9 8 9 8 7 6 4 4 4 3 3 4 5 6 6 6 5 6 6 6 6 7 8 8 7 7 7 7 7 9 9 9 11 13 11 8 7 8 9 10 11 12 11 11 11 11 11 10 9 8 8 8 7 6 5 7 9 10 12
1 2 1 2 0 2 3 4 3 2 1 6 5 1 3 0 1 5 7 7 6 8 9 7 8 7 8 10 9 9 9 7 6 5 3 2 3 3 4 4 5 5 7 7 8 7 6 6 7 7 7 6 7 7 6 6 8 8 8 12 11 9 9 7 7 9 10 11 12 11 11 11 12 11 9 9 9 8 8 7 6 5 6 9 10 11
1 1 2 1 0 4 2 2 1 1 3 6 1 3 2 5 6 6 7 7 6 6 7 7 6 6 8 10 10 7 6 6 5 4 3 3 2 2 3 3 3 4 5 6 6 7 6 5 5 5 6 6 6 6 6 7 8 8 10 10 7 9 10 10 8 7 9 9 10 11 11 10 11 10 10 10 8 8 8 8 6 5 4 6 7 8
6 0 1 6 2 2 2 4 6 6 6 8 10 9 9 8 6 6 8 7 7 6 4 6 7 6 7 8 8 7 6 4 5 3 3 1 1 2 2 2 2 3 3 4 5 6 5 6 5 4 5 5 6 6 6 5 6 8 10 8 7 8 9 9 9 9 9 9 9 9 9 10 10 10 10 9 9 9 8 8 6 4 5 5 6 8
7 10 9 11 9 13 11 8 7 8 9 10 9 8 9 10 8 8 8 8 5 6 4 6 6 6 5 4 6 4 4 4 4 3 2 2 2 1 1 2 3 3 4 4 5 6 5 5 5 5 4 6 6 6 5 6 5 8 5 5 7 7 7 8 9 10 9 9 9 9 10 11 10 10 9 9 8 8 7 7 6 6 6 6 7 7
1 0 1 9 7 2 7 3 9 9 9 10 10 9 9 8 7 7 8 7 7 6 6 5 5 5 4 4 4 4 3 3 3 3 2 2 1 1 1 0 1 2 2 3 3 4 5 5 6 5 5 5 5 5 5 6 6 5 5 5 5 6 7 8 10 10 10 9 8 8 8 9 7 7 8 8 6 7 7 7 7 7 7 7 6 6
4 1 10 8 9 7 7 6 8 8 8 8 6 8 10 10 9 8 7 6 7 6 6 6 6 6 5 5 4 5 4 4 4 3 3 2 2 1 1 0 1 2 2 3 4 3 4 6 5 6 5 5 4 4 5 5 6 6 6 5 3 3 5 6 7 8 8 10 9 8 7 6 7 8 7 8 9 10 9 8 7 8 8 6 6 6
5 2 5 4 9 8 11 8 9 9 9 8 7 5 6 7 9 9 8 8 7 8 6 5 5 5 4 6 4 4 3 2 2 3 2 2 2 2 2 2 2 2 2 2 3 3 3 3 4 5 5 6 4 3 4 4 4 6 5 5 4 3 5 5 5 6 7 7 7 8 6 6 6 6 5 5 8 8 7 8 7 7 7 7 4 4
10 9 8 11 13 7 6 9 10 9 6 4 5 7 6 6 7 8 7 7 6 7 6 6 3 3 4 4 5 4 4 2 1 1 2 3 2 3 2 2 2 3 3 2 2 3 4 4 4 4 5 5 4 4 3 3 3 4 5 4 4 4 4 4 5 5 6 5 6 6 5 4 4 5 5 5 4 6 7 8 10 7 7 6 10 13
7 10 6 7 7 8 9 12 2 7 11 9 8 6 7 5 7 8 7 7 5 5 6 6 4 1 1 2 1 4 4 4 3 2 2 2 3 3 3 3 3 3 4 4 3 4 3 4 4 3 3 5 4 4 3 3 3 2 3 4 3 2 3 4 5 5 6 5 5 5 4 3 3 3 4 4 4 4 5 5 8 12 13 10 10 11
Wind_Direction
130 162 184 207 218 214 215 180 190 224 221 252 323 20 282 289 266 255 263 272 188 146 186 184 186 199 244 251 282 272 4 115 98 236 184 173 173 186 203 206 209 213 216 197 200 90 81 85 109 125 124 126 131 135 129 111 101 95 91 95 108 147 157 155 153 160 168 168 172 193 191 185 180 170 164 171 168 167 164 156 161 157 154 154 150 153
95 188 234 218 213 199 210 203 214 255 265 238 261 303 294 282 284 273 286 301 247 140 226 197 169 216 254 293 252 203 76 3 147 157 201 201 190 195 199 207 211 218 342 278 201 65 82 109 132 130 125 126 138 146 127 129 142 156 152 147 153 164 183 169 170 174 178 182 181 179 184 174 173 165 176 181 189 181 171 158 159 158 155 154 157 157
155 198 232 224 211 206 223 207 203 202 242 251 219 242 264 269 257 280 292 340 5 84 215 179 175 226 223 230 298 280 140 215 206 166 186 188 204 206 207 213 218 216 220 220 149 83 108 121 115 120 128 145 153 143 144 154 141 130 131 138 151 165 173 174 169 173 181 188 184 194 179 167 168 224 196 177 178 173 167 165 164 159 156 156 159 161
200 261 235 225 190 194 245 233 228 255 245 232 252 165 242 254 44 297 305 356 349 82 296 189 184 279 309 316 303 268 266 233 188 233 201 172 187 204 208 203 207 216 214 212 118 100 102 101 119 130 140 149 150 139 128 86 107 126 138 160 177 157 157 161 171 176 182 180 182 162 157 167 182 187 186 182 171 165 150 164 168 161 157 164 167 174
218 237 219 205 199 183 218 242 217 212 266 250 205 183 216 273 228 178 270 348 323 351 100 80 42 339 334 314 312 305 6 350 340 355 94 219 194 199 208 207 201 199 207 201 85 101 96 105 123 132 134 138 143 140 128 136 160 171 164 174 189 176 166 169 167 167 162 158 150 131 99 110 88 83 152 174 203 185 171 153 173 182 161 165 173 181
259 249 182 180 219 208 203 245 228 169 228 271 227 183 191 208 242 281 310 37 27 340 334 137 27 286 301 321 284 307 330 341 358 19 12 335 254 290 224 212 222 304 28 73 115 110 115 122 124 127 136 142 143 147 169 175 166 168 174 187 183 201 176 172 169 165 161 168 169 164 166 176 181 178 182 194 193 188 183 183 175 171 171 171 176 180
230 221 185 210 205 219 216 219 228 151 196 181 250 200 190 216 241 302 323 65 14 139 290 55 134 266 331 322 291 281 10 21 24 34 26 11 327 216 264 7 29 55 75 69 92 115 120 132 134 143 150 154 156 175 177 178 166 166 178 193 186 195 199 175 173 168 165 167 175 180 185 184 183 184 198 197 194 186 181 152 165 178 175 176 173 175
195 194 208 215 206 216 219 236 226 162 145 211 238 165 109 343 262 270 65 120 215 273 309 15 102 149 331 296 263 11 66 33 25 22 18 16 28 21 20 33 63 108 114 116 112 128 140 148 151 162 169 168 169 171 173 170 171 178 187 191 192 187 207 204 182 180 179 175 178 182 185 189 191 192 188 187 191 183 162 163 162 165 173 176 175 170
173 223 196 200 202 207 209 220 213 160 156 210 239 184 182 215 238 271 286 176 181 109 305 316 340 72 277 270 318 358 75 38 33 21 20 25 30 35 33 26 38 62 98 122 130 140 152 157 162 160 165 150 148 162 169 181 184 184 198 195 181 189 193 203 205 203 201 186 177 178 176 185 199 193 185 178 179 179 174 168 157 162 166 169 166 165
256 207 212 193 160 197 216 225 200 167 163 252 182 147 143 125 64 70 125 90 343 64 281 275 291 120 284 306 345 344 85 76 54 12 16 28 37 39 43 42 48 58 71 92 118 126 128 129 127 133 120 139 160 167 168 175 181 199 207 201 185 192 207 204 207 215 218 216 187 177 181 181 185 192 172 181 178 181 175 173 166 164 166 166 158 158
244 265 175 184 187 198 200 202 168 168 179 188 114 97 44 31 35 12 63 82 48 40 264 240 284 124 60 314 340 23 329 333 27 29 22 27 34 34 35 46 52 58 59 77 91 93 79 57 60 89 129 117 58 27 35 201 197 208 220 239 215 219 234 219 195 171 317 345 357 355 34 129 135 99 123 155 167 169 169 173 167 175 179 167 164 156
281 277 273 230 197 181 176 182 180 171 143 105 128 173 15 328 15 35 338 39 98 287 261 273 297 85 81 318 3 27 21 30 35 39 23 24 31 36 31 25 37 48 57 68 78 87 95 85 60 44 57 49 32 28 336 220 188 200 218 211 224 241 256 269 194 85 31 77 82 115 117 110 102 120 133 171 176 179 178 173 173 172 164 186 167 155
303 266 226 268 225 152 155 109 315 97 89 87 79 58 128 260 47 261 23 300 143 187 254 242 212 45 57 107 49 57 50 44 46 47 23 16 20 31 38 33 24 32 42 46 60 72 77 75 72 76 72 58 33 324 243 217 205 196 196 200 196 203 246 270 173 122 98 141 177 134 108 109 105 99 111 150 164 175 171 171 171 170 179 177 176 175
277 276 245 251 257 273 125 130 176 119 37 102 132 134 120 109 63 174 279 167 321 294 257 175 135 118 196 76 28 70 68 73 70 56 43 39 33 28 28 31 28 23 22 19 16 25 42 60 72 83 81 57 2 297 285 228 214 199 172 196 216 219 196 197 200 187 184 199 184 151 127 121 114 118 125 134 152 149 163 198 178 186 180 180 188 178
243 336 302 149 239 200 129 153 174 171 163 182 145 139 172 143 155 189 183 167 209 212 289 297 95 222 126 38 38 71 83 78 70 65 53 54 45 42 40 34 26 21 14 13 10 12 9 9 18 30 64 88 25 296 284 326 352 343 282 208 214 213 201 193 190 186 200 199 170 129 123 119 115 126 129 138 149 161 184 195 186 189 187 182 182 188
195 202 253 218 199 172 156 189 133 101 99 241 131 73 86 214 140 143 201 143 206 162 360 11 143 10 97 116 84 92 75 65 66 75 65 60 56 56 52 48 41 32 28 19 12 360 353 357 351 352 357 360 12 309 332 345 348 344 313 290 272 267 254 207 198 194 183 117 30 87 130 131 126 123 126 129 148 169 153 193 196 188 191 192 177 186
132 295 259 266 143 182 179 148 183 124 171 261 96 150 214 168 127 133 28 86 104 43 254 175 66 41 75 86 38 16 42 43 50 57 58 52 46 52 57 51 44 38 33 32 25 10 353 347 349 354 341 341 349 23 26 8 356 338 325 315 332 326 346 346 351 349 78 146 181 192 161 147 142 142 152 162 171 178 167 184 197 188 192 188 183 179
140 238 295 115 247 258 188 169 159 165 142 84 135 233 61 99 105 131 193 354 107 155 250 106 145 141 44 241 4 9 28 26 41 54 63 56 53 53 49 46 42 39 35 30 25 19 12 5 351 339 332 337 351 347 352 353 353 342 320 271 264 259 255 259 260 284 306 198 182 180 173 159 156 156 158 167 174 176 173 180 189 187 183 194 187 178
160 285 299 231 213 204 69 70 27 4 101 152 185 190 122 232 235 317 104 151 106 184 238 32 35 82 45 273 348 27 29 27 44 58 57 49 44 48 49 47 43 39 32 24 18 15 12 8 4 360 358 1 358 357 7 5 353 342 337 307 288 273 260 226 213 219 219 191 186 170 173 199 169 157 153 156 165 171 188 183 181 187 189 187 188 171
51 145 289 321 49 285 101 99 199 243 342 298 53 107 239 106 151 140 199 174 122 223 91 317 62 355 337 316 26 40 47 33 60 66 64 57 50 51 53 50 46 39 34 27 25 16 9 3 356 357 5 10 7 7 360 355 346 342 324 315 302 290 254 226 211 215 195 151 182 165 177 183 155 151 145 152 154 156 214 201 186 186 182 190 186 175
280 117 219 274 301 59 68 165 197 180 189 190 191 275 194 193 210 120 97 130 172 178 172 151 70 283 10 7 36 56 46 40 62 73 68 61 56 56 54 49 49 46 31 22 22 14 8 3 355 355 4 4 4 8 10 9 358 329 331 317 305 310 325 263 206 188 196 177 173 159 170 149 118 130 146 155 165 165 203 210 199 188 194 183 175 163
82 84 205 305 25 29 20 13 248 188 151 135 147 49 260 275 146 163 250 353 98 117 188 121 186 109 28 15 30 34 27 36 49 75 73 63 53 48 46 44 42 41 37 37 36 15 8 1 353 354 2 4 7 6 4 1 3 356 335 314 307 318 311 326 312 238 209 205 182 177 172 159 157 161 176 171 185 195 200 199 197 193 184 179 114 189
142 158 100 106 170 127 83 73 51 53 83 84 78 40 29 132 99 94 172 266 38 43 94 111 121 174 359 57 57 46 44 39 21 28 69 61 51 44 41 40 37 35 27 15 14 27 25 5 355 357 1 358 358 356 356 354 355 349 341 340 323 298 288 285 302 263 165 167 163 181 183 177 161 154 187 187 188 198 197 228 217 191 185 148 162 182
84 72 54 295 320 290 80 83 59 28 19 44 26 22 34 38 287 167 171 185 123 329 66 37 70 139 110 99 73 63 48 41 35 27 45 60 50 40 41 34 27 23 18 19 14 8 3 4 7 9 5 0 356 350 348 342 341 343 350 343 341 335 313 295 331 341 135 141 164 164 137 186 179 181 190 193 197 194 186 202 205 159 139 147 170 161
70 312 121 81 11 345 346 340 46 11 40 64 28 341 345 344 49 113 86 42 81 298 165 112 153 144 145 78 72 59 50 41 33 33 32 42 40 36 42 44 37 30 26 22 19 11 8 9 8 5 0 358 354 351 348 348 347 346 343 343 345 339 333 313 279 241 48 224 199 140 143 216 191 182 183 189 191 186 173 160 113 104 148 188 213 140
86 235 94 137 164 171 192 178 236 343 350 309 19 3 16 23 352 21 281 4 94 331 86 115 114 112 105 76 61 52 44 40 35 30 37 44 37 31 40 41 36 32 31 30 23 20 16 9 6 5 2 356 353 349 346 345 345 341 339 334 337 338 333 330 318 221 208 203 218 99 185 218 196 186 175 163 143 134 125 118 122 151 170 201 194 131
104 42 85 156 145 161 178 158 210 104 56 61 19 34 5 7 18 101 100 74 155 156 64 39 141 133 97 54 53 49 45 39 30 24 26 23 23 31 39 39 36 37 33 29 26 20 15 11 7 360 359 356 349 348 346 344 343 339 334 330 328 329 327 323 322 299 293 261 179 180 205 200 210 193 146 124 127 125 128 138 158 169 145 218 174 123
65 63 13 83 76 105 112 91 92 101 99 69 71 35 35 38 36 47 72 93 162 93 61 89 121 111 99 68 53 45 48 49 41 32 24 22 24 23 28 37 36 38 35 32 27 22 17 11 6 3 357 352 350 344 347 347 343 339 333 327 323 322 320 321 319 284 232 233 202 196 197 207 198 156 136 133 118 137 146 148 162 168 161 208 119 103
121 111 287 77 74 84 86 100 99 78 72 81 69 58 52 47 50 56 35 325 154 157 165 132 110 99 87 66 63 51 52 51 40 34 30 29 25 24 29 33 32 33 30 30 25 18 16 13 5 1 357 351 350 350 350 347 343 339 335 331 325 325 316 315 308 294 227 181 215 211 195 199 178 128 121 126 118 110 125 160 162 136 151 114 100 98
88 34 63 92 88 73 74 83 88 96 86 59 45 53 54 57 58 61 57 47 65 71 94 104 94 94 84 60 54 52 52 58 52 41 38 39 33 31 33 32 33 31 30 29 23 17 14 10 7 1 359 356 352 347 346 346 344 341 338 339 336 332 329 319 316 264 239 225 217 158 191 174 101 103 113 126 110 105 100 87 87 164 145 120 106 102
103 299 135 96 81 51 73 85 73 79 80 67 39 38 49 54 59 48 57 45 72 80 83 91 95 87 63 66 73 55 53 62 59 47 35 32 32 36 36 35 32 31 28 28 24 17 14 11 7 3 2 356 349 344 341 342 344 341 342 346 338 339 338 330 336 342 278 246 218 159 142 136 125 123 135 119 117 107 106 103 116 163 133 112 102 98
69 171 142 98 97 98 270 99 98 90 81 69 38 23 25 32 46 14 50 7 58 122 114 95 83 107 112 89 79 67 61 53 49 42 36 29 29 32 34 31 29 26 25 24 20 17 15 12 7 4 356 349 347 344 343 341 339 348 349 342 345 341 343 358 357 355 335 287 137 129 150 144 127 121 122 119 119 114 109 103 136 157 126 111 102 97
126 121 110 124 103 148 197 139 129 102 66 37 13 344 46 76 98 76 51 43 29 37 92 114 127 112 130 127 94 63 58 59 54 37 25 26 29 33 32 30 27 24 21 19 15 14 12 9 5 359 351 346 348 348 343 337 339 352 346 349 346 342 3 9 12 5 358 3 7 338 136 128 123 119 121 126 117 105 104 108 185 119 105 102 102 101
53 87 114 140 108 153 180 200 48 58 68 197 328 321 136 119 95 69 43 49 42 56 79 67 110 111 110 102 96 93 76 70 66 58 46 36 29 26 31 30 28 25 21 17 15 13 6 359 355 353 353 348 345 345 334 336 336 335 342 351 358 9 8 16 15 18 15 13 11 1 14 121 125 131 127 127 131 112 96 101 115 94 94 96 96 97
58 59 60 67 101 142 160 76 64 75 141 100 51 72 85 91 85 83 61 52 79 97 98 100 108 110 113 107 107 108 105 94 74 62 44 35 37 39 36 33 29 28 23 15 16 11 7 1 355 349 348 351 350 344 341 345 346 341 0 7 16 15 17 14 18 24 22 17 13 7 11 30 89 102 105 107 98 97 104 123 109 95 87 88 95 102
70 85 112 50 80 62 51 281 130 152 128 144 102 93 120 111 110 82 62 40 44 82 108 111 117 116 116 121 124 120 105 95 77 54 41 39 35 33 36 26 21 27 28 21 16 7 7 1 358 352 347 339 344 344 350 348 341 357 8 11 21 20 19 18 25 25 24 19 17 10 10 16 50 73 75 90 109 106 105 107 101 99 98 96 93 89
127 90 88 73 18 124 100 42 86 110 107 66 46 358 26 262 255 184 112 39 19 46 118 126 127 131 134 136 134 130 126 107 74 51 32 32 33 35 36 37 27 23 19 19 15 13 0 358 2 355 348 347 348 349 349 345 348 359 18 24 19 23 21 23 26 18 25 20 17 13 18 25 28 52 63 67 84 99 104 103 94 100 110 102 97 98
67 126 205 104 3 95 127 98 111 159 174 185 156 283 324 258 226 193 107 110 29 23 121 139 146 146 152 159 168 168 181 46 45 37 17 28 29 43 38 43 36 21 21 14 16 10 8 3 6 6 5 358 360 357 348 347 347 7 29 28 23 27 24 24 21 15 17 21 15 15 25 30 30 39 50 54 61 70 85 76 66 75 108 106 109 97
40 64 100 106 136 107 103 121 133 168 213 116 283 317 318 286 207 286 56 85 46 43 65 118 137 156 169 180 194 199 313 77 93 57 342 0 25 23 34 31 29 32 22 22 10 13 10 8 12 13 12 13 11 358 352 345 345 17 32 28 28 33 32 23 15 16 12 13 20 19 32 32 30 33 40 47 45 43 81 80 72 87 91 101 96 94
47 6 53 77 93 81 121 95 132 84 196 217 323 313 315 347 81 58 196 197 106 59 61 85 86 95 113 127 172 183 183 144 146 155 265 338 356 9 23 23 28 27 26 20 19 15 15 12 22 23 18 14 3 352 354 348 1 22 22 20 27 38 33 22 13 10 18 17 25 26 32 33 31 31 37 34 37 33 57 71 75 49 87 84 93 98
6 11 37 121 113 93 91 92 77 77 53 30 312 299 304 305 131 159 220 135 122 80 71 84 81 69 85 83 98 89 50 78 106 134 37 21 31 29 16 10 12 8 16 16 9 5 23 23 28 26 17 4 355 355 352 351 16 25 18 14 23 24 21 19 16 24 23 27 27 33 29 28 32 28 32 29 35 32 46 58 76 92 92 92 86 89
13 56 37 59 64 105 137 91 113 64 78 338 289 265 335 95 169 216 115 93 107 92 85 89 92 85 88 92 94 96 106 102 103 80 68 49 46 30 23 14 11 7 359 357 2 14 17 22 26 22 16 6 358 356 357 0 26 26 22 25 22 3 345 10 25 28 34 35 34 33 33 29 30 33 33 25 26 37 40 49 64 80 95 98 94 90
232 78 88 63 265 77 56 92 94 145 2 335 283 310 21 124 106 100 97 78 92 101 101 91 97 99 101 97 91 101 106 104 101 98 86 63 45 38 32 27 17 9 2 359 2 1 9 17 22 17 7 355 0 1 0 7 28 23 22 30 14 2 359 351 28 41 39 42 42 40 35 33 35 35 31 36 32 34 29 24 34 48 82 94 96 96
253 105 112 44 17 123 74 82 128 77 351 337 115 123 41 78 123 121 115 101 82 87 94 101 87 94 101 107 113 109 102 100 83 80 71 41 25 24 31 33 29 16 5 5 7 1 3 13 10 9 355 354 354 355 0 16 27 21 27 18 353 7 12 10 1 33 51 47 47 47 42 36 35 34 35 31 32 41 41 28 10 359 31 76 93 98
323 177 241 115 347 99 104 100 93 69 57 43 69 83 83 83 89 97 93 94 101 84 88 98 102 99 105 115 113 117 110 103 110 109 114 105 66 25 23 17 26 14 5 2 4 1 6 11 8 353 349 345 349 351 352 353 24 28 24 359 3 9 14 17 18 17 23 38 43 47 56 52 41 35 31 31 32 34 30 33 19 25 26 60 85 94
90 96 97 85 73 87 72 87 99 83 75 70 63 76 86 86 79 85 93 98 86 100 106 106 106 105 101 99 107 92 110 135 123 139 122 123 112 65 40 30 12 10 3 6 4 359 360 3 13 16 352 340 344 346 341 345 1 29 8 354 6 8 11 21 26 30 25 19 26 32 41 46 47 45 37 33 32 38 33 26 20 39 43 53 64 77
242 189 336 100 174 103 86 97 90 92 89 87 87 83 84 85 89 90 88 90 99 100 94 91 106 110 112 104 112 131 139 159 141 143 145 146 149 129 89 17 357 347 333 342 340 355 3 7 7 11 16 9 338 331 337 348 353 1 358 8 7 11 21 30 27 23 21 23 23 22 33 51 47 48 45 48 48 43 37 34 29 39 41 46 60 79
58 106 84 83 93 80 110 111 105 103 101 96 94 102 99 97 94 88 95 99 101 96 103 105 99 93 101 109 134 139 165 163 147 155 144 169 184 186 216 284 327 354 329 310 316 354 3 1 353 355 4 10 345 327 324 336 340 346 354 349 3 26 23 26 22 19 16 15 15 21 23 31 50 63 52 39 45 46 34 24 31 51 45 29 23 66
143 178 81 158 105 108 104 99 105 96 85 98 113 112 112 118 113 111 108 106 105 103 104 108 119 143 140 156 149 134 129 164 143 158 167 199 208 207 222 248 260 265 291 324 321 338 327 321 324 326 333 332 337 343 343 324 321 332 342 339 343 29 48 28 16 16 13 12 18 15 14 24 23 43 69 78 68 65 54 43 31 45 52 31 13 24
83 89 114 114 110 126 142 151 155 117 129 146 149 146 136 124 122 119 120 118 128 132 134 127 137 163 148 155 151 145 151 200 223 163 192 232 243 253 251 247 249 259 270 268 282 299 310 306 298 303 314 310 314 329 330 331 330 324 325 333 344 357 43 39 33 22 14 11 16 11 10 17 30 29 37 46 69 99 90 76 77 66 68 42 23 43
114 140 137 123 133 136 152 161 184 128 136 157 159 157 142 140 130 132 138 145 151 149 143 138 143 150 196 235 219 154 179 175 216 177 186 231 253 240 227 214 244 270 274 279 293 304 298 288 285 288 300 295 316 311 299 316 327 323 315 326 356 9 1 8 20 26 26 24 26 22 25 33 56 28 47 41 46 50 76 71 50 56 58 60 60 59